This is the latest recevied weather packets stored in our database for station/object N0FDH. If no packets are shown the sender has not sent any weather packets the latest 10 day(s).
| Time | Temp. | Humidity | Pressure | Rain* | Wind** | Luminosity | Snow |
|---|---|---|---|---|---|---|---|
| 1777302674 | 10.56° C | 97% | 1003.3 hPa | 0 mm | - | 51 W/m² | - |
| 1777302373 | 10.56° C | 96% | 1003.3 hPa | 0 mm | - | 55 W/m² | - |
| 1777302071 | 10.56° C | 97% | 1003.3 hPa | 0 mm | - | 51 W/m² | - |
| 1777301769 | 10.56° C | 97% | 1003.4 hPa | 0 mm | - | 47 W/m² | - |
| 1777301466 | 10.56° C | 97% | 1003.5 hPa | 0 mm | - | 57 W/m² | - |
| 1777301162 | 10.56° C | 97% | 1003.5 hPa | 0 mm | - | 57 W/m² | - |
| 1777300859 | 10.56° C | 97% | 1003.7 hPa | 0 mm | - | 53 W/m² | - |
| 1777300557 | 10.56° C | 97% | 1003.7 hPa | 0 mm | - | 53 W/m² | - |
| 1777300255 | 10.56° C | 97% | 1003.8 hPa | 0 mm | - | 81 W/m² | - |
| 1777299950 | 10.56° C | 97% | 1003.7 hPa | 0 mm | - | 81 W/m² | - |
| 1777299648 | 10.56° C | 97% | 1003.9 hPa | 0 mm | - | 69 W/m² | - |
| 1777299346 | 10.56° C | 97% | 1003.9 hPa | 0 mm | - | 64 W/m² | - |
| 1777299043 | 10.56° C | 97% | 1004.1 hPa | 0 mm | - | 64 W/m² | - |
| 1777298740 | 10.56° C | 97% | 1004.3 hPa | 0 mm | - | 57 W/m² | - |
| 1777298436 | 10.56° C | 97% | 1004.2 hPa | 0 mm | - | 39 W/m² | - |
| 1777298133 | 10.56° C | 96% | 1004.3 hPa | 0 mm | - | 45 W/m² | - |
| 1777297833 | 10.56° C | 97% | 1004.7 hPa | 0 mm | - | 47 W/m² | - |
| 1777297531 | 10.56° C | 97% | 1004.5 hPa | 0 mm | - | 44 W/m² | - |
| 1777297227 | 10.56° C | 96% | 1004.7 hPa | 0 mm | - | 35 W/m² | - |
| 1777296925 | 10.56° C | 96% | 1004.6 hPa | 0 mm | - | 34 W/m² | - |
| 1777296622 | 10.56° C | 96% | 1004.8 hPa | 0 mm | - | 26 W/m² | - |
| 1777296292 | 10.56° C | 97% | 1005 hPa | 0 mm | - | 22 W/m² | - |
| 1777295988 | 10° C | 97% | 1005.2 hPa | 0 mm | - | 19 W/m² | - |
| 1777295685 | 10° C | 97% | 1005.5 hPa | 0 mm | - | 15 W/m² | - |
| 1777295383 | 10° C | 97% | 1005.6 hPa | 0 mm | - | 16 W/m² | - |
* Rain latest hour (hover to see other rain measurements)
** Current wind speed in m/s (hover to see current wind gust speed)